Location: ActonStarParty
(42.4766°N, 71.4538°W)
Time: 16:44:28
(UTC-04:00)

ATLAS 5 CENTAUR R/B - Visible Passes

Search period start: 25 June 2017 00:00
Search period end: 05 July 2017 00:00
Orbit: 236 x 14673 km, 60.8° (Epoch: 07 August)

Date Brightness Start Highest point End Pass type
(mag) Time Alt. Az. Time Alt. Az. Time Alt. Az.
25 Jun 8.0 03:06:55 10° NW 04:26:45 49° W 05:48:23 10° SW visible
25 Jun 8.3 20:19:05 10° W 20:50:40 60° N 23:09:12 10° ESE visible
26 Jun 7.9 01:07:01 10° NW 02:36:59 75° W 04:04:10 10° S visible
26 Jun 8.1 23:08:12 10° NW 00:30:52 79° ENE 02:11:20 10° SSE visible
27 Jun 8.1 04:00:53 10° NW 05:09:14 35° WNW 06:25:10 10° WSW visible
27 Jun 8.4 21:10:07 10° WNW 21:58:39 62° NNE 00:09:31 10° ESE visible
28 Jun 7.9 01:59:25 10° NW 03:24:46 60° W 04:49:06 10° SSW visible
28 Jun 8.0 19:13:34 10° W 19:37:11 63° NNW 21:50:44 10° E visible
29 Jun 8.0 00:00:01 10° NW 01:29:08 86° WSW 03:00:39 10° S visible
29 Jun 8.2 22:01:21 10° WNW 23:11:42 70° NE 01:04:14 10° SE visible
30 Jun 8.0 02:52:06 10° NW 04:08:49 45° W 05:29:58 10° SW visible
30 Jun 8.4 20:03:41 10° W 20:38:21 60° N 22:56:21 10° ESE visible
01 Jul 7.9 00:51:44 10° NW 02:20:13 71° W 03:47:14 10° S visible
01 Jul 8.0 22:52:36 10° NW 00:16:45 83° ENE 01:55:12 10° SSE visible
02 Jul 8.1 03:45:43 10° NW 04:50:18 32° WNW 06:04:08 10° WSW visible
02 Jul 8.3 20:54:10 10° WNW 21:47:17 64° NNE 23:54:30 10° SE visible
03 Jul 7.9 01:43:29 10° NW 03:06:27 56° W 04:30:45 10° SSW visible
03 Jul 8.1 18:57:05 10° W 19:22:31 61° NNW 21:38:07 10° E visible
03 Jul 7.9 23:43:44 10° NW 01:12:22 83° WSW 02:43:16 10° S visible
04 Jul 8.5 04:42:01 10° NW 05:29:51 21° WNW 06:26:41 10° W visible
